#timestamp,LO_Frequency,Hit,StdDev 
1607796015.0,286047001.2,N
1607796015.9,286047001.2,N
1607796035.8,286047000.2,N
1607796055.6,286047000.3,N
1607796075.5,286047002.4,N
1607796095.3,286047001.8,N
1607796115.1,286047004.1,N
1607796135.9,286047003.9,N
1607796155.7,286047002.8,N
1607796175.5,286047001.8,N
1607796195.4,286047001.7,N
1607796215.2,286047001.9,N
1607796235.1,286047000.3,N
1607796236.0,286047000.3,N
1607796255.8,286046998.1,N
1607796275.6,286046999.9,N
1607796295.5,286046999.7,N
1607796315.3,286047000.2,N
1607796335.2,286046999.4,N
1607796355.9,286046996.9,N
1607796375.7,286046999.4,N
1607796395.6,286047000.3,N
1607796415.4,286047000.8,N
1607796435.2,286047000.4,N
1607796455.1,286047000.3,N
1607796456.0,286047000.3,N
1607796475.8,286046999.9,N
1607796495.7,286046999.7,N
1607796515.5,286047002.6,N
1607796535.3,286047003.8,N
1607796555.2,286047003.3,N
1607796575.0,286047005.1,Y
1607796575.9,286047005.1,P
1607796595.7,286047003.1,N
1607796615.6,286047003.2,N
1607796635.4,286047005.9,Y
1607796655.3,286047000.2,P
1607796675.1,286046999.7,N
1607796695.8,286046999.7,N
1607796715.7,286047004.0,N
1607796735.5,286047002.1,N
1607796755.3,286047000.6,N
1607796775.2,286046999.9,N
1607796795.0,286047000.8,N
1607796795.9,286047000.8,N
1607796815.8,286046999.7,N
1607796835.6,286047000.1,N
1607796855.4,286046999.7,N
1607796875.3,286047000.7,N
1607796895.1,286046998.3,N
1607796915.8,286046997.6,N
1607796935.7,286046996.5,N
1607796955.5,286046999.6,N
1607796975.4,286046999.6,N
1607796995.2,286047001.0,N
1607797015.0,286047000.7,N
1607797015.9,286047000.7,N
1607797035.8,286046996.8,N
1607797055.6,286046996.6,N
1607797075.4,286046999.5,N
1607797095.3,286046996.9,N
1607797115.1,286046996.7,N
1607797135.9,286046996.8,N
1607797155.7,286046998.0,N
1607797175.5,286046996.4,N
1607797195.4,286046995.7,N
1607797215.2,286046993.4,Y
1607797235.0,286046997.7,P
1607797236.0,286046997.7,P
1607797255.8,286046997.6,P
1607797275.6,286046999.0,N
1607797295.5,286046999.6,N
1607797315.3,286046995.6,Y
1607797335.1,286046998.4,P
1607797355.9,286046995.5,P
1607797375.7,286046994.1,P
1607797395.6,286046996.0,N
1607797415.4,286046996.1,N
1607797435.2,286046996.9,N
1607797455.1,286046997.5,N
1607797456.0,286046997.5,N
1607797475.8,286046999.5,N
1607797495.6,286046995.1,Y
1607797515.5,286046998.5,P
1607797535.3,286046998.8,N
1607797555.2,286046999.2,N
1607797575.9,286046998.8,N
1607797595.7,286047001.2,N
1607797615.6,286047000.5,N
1607797635.4,286047000.5,N
1607797655.2,286046998.9,N
1607797675.1,286046996.9,N
1607797676.0,286046996.9,N
1607797695.8,286046995.4,Y
1607797715.7,286046999.2,P
1607797735.5,286046997.0,P
1607797755.3,286046998.5,N
1607797775.2,286046997.8,N
1607797795.0,286046996.9,Y
1607797795.9,286046996.9,P
1607797815.7,286047001.0,N
1607797835.6,286046998.6,N
1607797855.4,286046998.8,N
1607797875.3,286046999.0,N
1607797895.1,286046998.2,N
1607797896.0,286046998.2,N
1607797915.8,286046996.6,Y
1607797935.7,286047001.1,P
1607797955.5,286047001.2,N
1607797975.4,286047001.7,N
1607797995.2,286046999.7,N
1607798015.0,286046998.8,N
1607798015.9,286046998.8,N
1607798035.8,286046999.5,N
1607798055.6,286047001.2,N
1607798075.4,286046999.2,N
1607798095.3,286046999.6,N
1607798115.1,286046998.3,N
1607798135.9,286046997.3,N
1607798155.7,286046998.5,N
1607798175.5,286047002.8,N
1607798195.4,286047001.0,N
1607798215.2,286047000.5,N
1607798235.0,286047002.3,N
1607798235.9,286047002.3,N
1607798255.8,286047002.1,N
1607798275.6,286047001.4,N
1607798295.5,286047000.0,N
1607798315.3,286046998.9,N
1607798335.1,286047000.8,N
1607798355.9,286046998.6,N
1607798375.7,286047000.3,N
1607798395.5,286047001.8,N
1607798415.4,286047000.3,N
1607798435.2,286047000.5,N
1607798455.1,286046998.2,N
1607798456.0,286046998.2,N
1607798475.8,286046997.7,N
1607798495.6,286046999.0,N
1607798515.5,286046997.0,N
1607798535.3,286046996.9,N
1607798555.2,286046999.9,N
1607798575.9,286047000.9,N
1607798595.7,286047001.9,N
1607798615.6,286047001.7,N
1607798635.4,286047004.1,N
1607798655.2,286047001.9,N
1607798675.1,286046998.8,N
1607798676.0,286046998.8,N
1607798695.8,286047000.9,N
1607798715.7,286047002.1,N
1607798735.5,286047001.1,N
1607798755.3,286047002.6,N
1607798775.2,286047000.5,N
1607798795.0,286046999.9,N
1607798795.9,286046999.9,N
1607798815.8,286047001.8,N
1607798835.6,286047002.7,N
1607798855.4,286047000.8,N
1607798875.3,286046998.3,N
1607798895.1,286047002.1,N
1607798915.8,286047000.4,N
1607798935.7,286047002.4,N
1607798955.5,286047002.5,N
1607798975.4,286047000.4,N
1607798995.2,286047000.7,N
1607799015.0,286047000.9,N
1607799015.9,286047000.9,N
1607799035.8,286047002.4,N
1607799055.6,286047000.9,N
1607799075.5,286047001.7,N
1607799095.3,286047000.2,N
1607799115.1,286046999.7,N
1607799135.9,286047002.8,N
1607799155.7,286047001.8,N
1607799175.5,286047002.4,N
1607799195.4,286047002.0,N
1607799215.2,286047000.1,N
1607799235.1,286047000.4,N
1607799236.0,286047000.4,N
1607799255.8,286047001.1,N
1607799275.6,286047000.3,N
1607799295.5,286046998.3,N
1607799315.3,286046996.6,N
1607799335.1,286046999.0,N
1607799355.9,286046998.3,N
1607799375.7,286046996.1,N
1607799395.6,286046995.7,N
1607799415.4,286046997.0,N
1607799435.2,286046999.6,N
1607799455.1,286046998.7,N
1607799456.0,286046998.7,N
1607799475.8,286047000.7,N
1607799495.6,286047001.2,N
1607799515.5,286046999.3,N
1607799535.3,286047000.9,N
1607799555.2,286047000.8,N
1607799575.9,286047001.0,N
1607799595.7,286047000.5,N
